User: anonymous   Login
Location: Banios
(43.0451°N, 0.2335°E)
Time: 14:30:55
(UTC+00:00)
Language:

USA 306 - Orbit

View from above orbital plane
View from above orbital plane
View from above satellite
View from above satellite

Ground track
Ground track

The orbit data is extracted from the following two-line orbital elements,

1 45874U 20046B   21100.10178158 0.00002300  00000-0  18901-3 0    05
2 45874  53.9840 201.2756 0009086 282.3605  77.6394 14.98683862    02
Epoch (UTC): 10 April 2021 02:26:33
Eccentricity: 0.0009086
inclination: 53.9840°
perigee height: 564 km
apogee height: 577 km
right ascension of ascending node: 201.2756°
argument of perigee: 282.3605°
revolutions per day: 14.98683862
mean anomaly at epoch: 77.6394°
orbit number at epoch: 0

The dashed part of the orbit path shows where the satellite is in the earth's shadow,  

DLR